Lewistown, MT

1:02 AM MST on January 20, 2018 (GMT -0700)
Lewistown Municipal

Weather History for KLWT - December, 2014

Change the Weather History Date:

Tuesday, December 9, 2014

  Actual Average Record
Temperature  
Mean Temperature 48 °F 24 °F  
Max Temperature 61 °F 34 °F 65 °F (1990)
Min Temperature 35 °F 13 °F -36 °F (1919)
Degree Days  
Heating Degree Days 17 41  
Month to date heating degree days 286 362  
Since 1 July heating degree days 2203 2490  
Cooling Degree Days 0 0  
Month to date cooling degree days 0 0  
Year to date cooling degree days 295 210  
Moisture  
Dew Point 29 °F    
Average Humidity 49    
Maximum Humidity 64    
Minimum Humidity 33    
Precipitation  
Precipitation 0.00 in 0.02 in 0.59 in (1949)
Month to date precipitation 0.02 0.19  
Year to date precipitation 18.14 16.38  
Snow  
Snow 0.00 in - - ()
Snow Depth 0.00 in    
Sea Level Pressure  
Sea Level Pressure 30.01 in    
Wind  
Wind Speed 14 mph (WSW)    
Max Wind Speed 23 mph    
Max Gust Speed 29 mph    
Visibility 10 miles    
Events      
T = Trace of Precipitation, MM = Missing Value Source: NWS Daily Summary

Daily Weather History Graph

Daily Weather History Graph

Search for Another Location

Airport or City:

Trip Planner

Search our weather history database for the weather conditions in past years. The results will help you decide how hot, cold, wet, or windy it might be!

Date:

Astronomy

Dec. 09, 2014 Rise Set
Actual Time 7:51 AM MST 4:28 PM MST
Civil Twilight 7:16 AM MST 5:03 PM MST
Nautical Twilight 6:38 AM MST 5:42 PM MST
Astronomical Twilight 6:01 AM MST 6:19 PM MST
Moon 7:58 PM MST (12/9) 9:59 AM MST (12/9)
Length of Visible Light 9h 47m
Length of Day
8h 36m
Waning Gibbous, 89% of the Moon is Illuminated
Dec 9
Waning Gibbous
Dec 14
Last Quarter
Dec 21
New
Dec 28
First Quarter
Jan 4
Full

Hourly Weather History & Observations

Time (MST) Temp. Windchill Dew Point Humidity Pressure Visibility Wind Dir Wind Speed Gust Speed Precip Events Conditions
12:54 AM 39.0 °F 31.8 °F 27.0 °F 62% 30.09 in 10.0 mi SW 11.5 mph - N/A   Clear
1:54 AM 37.0 °F 29.3 °F 26.1 °F 65% 30.08 in 10.0 mi SSW 11.5 mph - N/A   Clear
2:54 AM 37.9 °F 29.6 °F 27.0 °F 65% 30.07 in 10.0 mi SW 13.8 mph - N/A   Clear
3:54 AM 39.9 °F 32.5 °F 27.0 °F 60% 30.08 in 10.0 mi SW 12.7 mph - N/A   Clear
4:54 AM 42.1 °F 33.9 °F 27.0 °F 55% 30.06 in 10.0 mi SW 17.3 mph - N/A   Clear
5:54 AM 39.9 °F 32.1 °F 26.1 °F 58% 30.06 in 10.0 mi SW 13.8 mph - N/A   Clear
6:54 AM 41.0 °F 33.1 °F 26.1 °F 55% 30.05 in 10.0 mi SW 15.0 mph - N/A   Clear
7:54 AM 43.0 °F 35.4 °F 26.1 °F 51% 30.05 in 10.0 mi SW 16.1 mph - N/A   Clear
8:54 AM 46.0 °F 39.9 °F 28.0 °F 50% 30.04 in 10.0 mi SW 13.8 mph - N/A   Clear
9:54 AM 50.0 °F - 28.9 °F 44% 30.05 in 10.0 mi WSW 12.7 mph - N/A   Clear
10:54 AM 53.1 °F - 30.0 °F 41% 30.04 in 10.0 mi WSW 16.1 mph - N/A   Clear
11:54 AM 54.0 °F - 30.0 °F 40% 30.00 in 10.0 mi WSW 20.7 mph 27.6 mph N/A   Clear
12:54 PM 55.0 °F - 30.0 °F 38% 29.97 in 10.0 mi WSW 16.1 mph - N/A   Clear
1:54 PM 57.0 °F - 30.9 °F 37% 29.95 in 10.0 mi WSW 12.7 mph - N/A   Partly Cloudy
2:54 PM 57.9 °F - 28.9 °F 33% 29.92 in 10.0 mi West 17.3 mph - N/A   Clear
3:54 PM 53.1 °F - 28.9 °F 40% 29.94 in 10.0 mi West 12.7 mph - N/A   Clear
4:54 PM 48.9 °F - 28.9 °F 46% 29.96 in 10.0 mi SW 16.1 mph - N/A   Clear
5:54 PM 46.0 °F 41.0 °F 28.9 °F 51% 29.97 in 10.0 mi SW 10.4 mph - N/A   Clear
6:54 PM 45.0 °F 39.7 °F 28.9 °F 53% 29.97 in 10.0 mi SW 10.4 mph - N/A   Clear
7:54 PM 51.1 °F - 28.9 °F 43% 29.96 in 10.0 mi WSW 12.7 mph - N/A   Clear
8:54 PM 50.0 °F - 30.0 °F 46% 29.96 in 10.0 mi WSW 12.7 mph - N/A   Clear
9:54 PM 48.0 °F - 30.0 °F 50% 29.95 in 10.0 mi WSW 13.8 mph - N/A   Clear
10:54 PM 48.9 °F - 30.9 °F 50% 29.97 in 10.0 mi West 16.1 mph - N/A   Clear
11:54 PM 45.0 °F 38.9 °F 30.9 °F 58% 29.97 in 10.0 mi WSW 12.7 mph - N/A   Clear